Location: Sungai Bunut
(2.6333°N, 113.7333°E)
Time: 16:38:51
(UTC+00:00)

Vanguard 3 - Pass Details

Date: 12 December 2023
Orbit: 508 x 3239 km, 33.4° (Epoch: 28 February)

Event Time Altitude Azimuth Distance (km) Brightness Sun altitude
Rises 12:26:25 0° 278° (W) 7,186 12.8 -30.3°
Reaches altitude 10° 12:33:35 10° 292° (WNW) 6,001 12.0 -31.9°
Maximum altitude 12:45:39 21° 334° (NNW) 4,484 10.8 -34.6°
Enters shadow 12:50:52 17° 359° (N) 4,326 10.6 -35.8°
Drops below altitude 10° 12:55:02 10° 18° (NNE) 4,535 - -36.7°
Sets 12:59:25 0° 34° (NE) 5,068 - -37.7°
